Cortez, CO

7:25 PM MST on November 16, 2019 (GMT -0700)
Cortez Municipal

Weather History for KCEZ - October, 2019

Change the Weather History Date:

Wednesday, October 16, 2019

  Actual Average Record
Temperature  
Mean Temperature 48 °F 48 °F  
Max Temperature 73 °F 66 °F 77 °F (2011)
Min Temperature 23 °F 31 °F 19 °F (2017)
Degree Days  
Heating Degree Days 17 16  
Month to date heating degree days 265 218  
Since 1 July heating degree days 371 390  
Cooling Degree Days 0 0  
Month to date cooling degree days 0 0  
Year to date cooling degree days 547 426  
Moisture  
Dew Point 11 °F    
Average Humidity 30    
Maximum Humidity 50    
Minimum Humidity 9    
Precipitation  
Precipitation 0.00 in 0.03 in 0.53 in (1998)
Month to date precipitation T 0.79  
Year to date precipitation 10.03 11.01  
Sea Level Pressure  
Sea Level Pressure 30.17 in    
Wind  
Wind Speed 4 mph (ENE)    
Max Wind Speed 13 mph    
Max Gust Speed 17 mph    
Visibility 10 miles    
Events      
T = Trace of Precipitation, MM = Missing Value Source: NWS Daily Summary

Daily Weather History Graph

Daily Weather History Graph

Search for Another Location

Airport or City:

Astronomy

Oct. 16, 2019 Rise Set
Actual Time 7:23 AM MDT 6:36 PM MDT
Civil Twilight 6:56 AM MDT 7:02 PM MDT
Nautical Twilight 6:26 AM MDT 7:32 PM MDT
Astronomical Twilight 5:56 AM MDT 8:03 PM MDT
Moon 8:34 PM MDT (10/16) 9:54 AM MDT (10/16)
Length of Visible Light 12h 05m
Length of Day
11h 13m
Waning Gibbous, 92% of the Moon is Illuminated
Oct 16
Waning Gibbous
Oct 21
Last Quarter
Oct 27
New
Nov 4
First Quarter
Nov 12
Full

Hourly Weather History & Observations

Time (MDT) Temp. Windchill Dew Point Humidity Pressure Visibility Wind Dir Wind Speed Gust Speed Precip Events Conditions
12:53 AM 36.0 °F 29.0 °F 10.0 °F 34% 30.17 in 10.0 mi NE 9.2 mph - N/A   Clear
1:53 AM 30.9 °F 26.2 °F 10.0 °F 42% 30.19 in 10.0 mi ENE 4.6 mph - N/A   Clear
2:53 AM 30.0 °F 23.2 °F 9.0 °F 41% 30.19 in 10.0 mi ENE 6.9 mph - N/A   Clear
3:53 AM 28.9 °F 25.2 °F 8.1 °F 41% 30.19 in 10.0 mi East 3.5 mph - N/A   Clear
4:53 AM 25.0 °F - 9.0 °F 51% 30.22 in 10.0 mi Calm Calm - N/A   Clear
5:53 AM 27.0 °F 23.0 °F 10.0 °F 49% 30.22 in 10.0 mi NE 3.5 mph - N/A   Clear
6:53 AM 25.0 °F - 9.0 °F 51% 30.25 in 10.0 mi Calm Calm - N/A   Clear
7:53 AM 28.0 °F 21.7 °F 10.9 °F 49% 30.32 in 10.0 mi East 5.8 mph - N/A   Clear
8:53 AM 41.0 °F - 14.0 °F 33% 30.30 in 10.0 mi Calm Calm - N/A   Clear
9:53 AM 54.0 °F - 15.1 °F 22% 30.27 in 10.0 mi ENE 3.5 mph - N/A   Clear
10:53 AM 61.0 °F - 14.0 °F 16% 30.25 in 10.0 mi Calm Calm - N/A   Clear
11:53 AM 66.0 °F - 14.0 °F 13% 30.23 in 10.0 mi Variable 3.5 mph - N/A   Clear
12:53 PM 69.1 °F - 15.1 °F 13% 30.18 in 10.0 mi Calm Calm - N/A   Clear
1:53 PM 71.1 °F - 12.9 °F 11% 30.17 in 10.0 mi Variable 4.6 mph - N/A   Clear
2:53 PM 72.0 °F - 12.9 °F 10% 30.13 in 10.0 mi Variable 5.8 mph - N/A   Clear
3:53 PM 72.0 °F - 14.0 °F 11% 30.11 in 10.0 mi Variable 6.9 mph - N/A   Clear
4:53 PM 72.0 °F - 10.9 °F 10% 30.09 in 10.0 mi Calm Calm - N/A   Clear
5:53 PM 70.0 °F - 9.0 °F 9% 30.07 in 10.0 mi West 4.6 mph - N/A   Clear
6:53 PM 54.0 °F - 9.0 °F 17% 30.12 in 7.0 mi Calm Calm - N/A   Clear
7:53 PM 44.1 °F 39.5 °F 10.9 °F 26% 30.15 in 10.0 mi ENE 8.1 mph - N/A   Clear
8:53 PM 43.0 °F 37.7 °F 9.0 °F 25% 30.11 in 10.0 mi ENE 9.2 mph - N/A   Clear
9:53 PM 39.9 °F 35.1 °F 10.9 °F 31% 30.08 in 10.0 mi NE 6.9 mph - N/A   Clear
10:53 PM 35.1 °F 31.0 °F 10.0 °F 35% 30.08 in 10.0 mi East 4.6 mph - N/A   Clear
11:53 PM 32.0 °F - 12.0 °F 44% 30.06 in 10.0 mi Calm Calm - N/A   Clear